When you browse on this site, cookies collect data to enhance your experience and personalize the content and advertising you see.
Visit our Privacy Policy to learn more. By continuing to use the site, you agree to this use of cookies and data.
  • In Hungary
  • List of Countries
  • For 7 days
  • Water Temperature
  • Satellite Maps
  • Weather Map
  • News
  • Weather Widgets
  • user-avatar
    Login

    Hourly Weather Pinto

    Today, 21 January, Monday

    Time Temperature Precipitation Wind Pressure Humidity
    00:00 +4°C° 0 mm 2 mps 710 mmHg 72%
    01:00 +4°C° 0 mm 2 mps 710 mmHg 74%
    02:00 +3°C° 0 mm 2 mps 710 mmHg 76%
    03:00 +3°C° 0 mm 2 mps 710 mmHg 77%
    04:00 +3°C° 0 mm 2 mps 710 mmHg 78%
    05:00 +2°C° 0 mm 2 mps 710 mmHg 79%
    06:00 +1°C° 0 mm 3 mps 710 mmHg 80%
    07:00 +2°C° 0 mm 3 mps 710 mmHg 77%
    08:00 +2°C° 0 mm 3 mps 711 mmHg 74%
    09:00 +3°C° 0 mm 3 mps 711 mmHg 72%
    10:00 +5°C° 0 mm 3 mps 711 mmHg 63%
    11:00 +6°C° 0 mm 4 mps 711 mmHg 54%
    12:00 +8°C° 0 mm 4 mps 711 mmHg 45%
    13:00 +8°C° 0 mm 4 mps 711 mmHg 44%
    14:00 +8°C° 0 mm 5 mps 711 mmHg 42%
    15:00 +8°C° 0 mm 5 mps 711 mmHg 41%
    16:00 +7°C° 0 mm 4 mps 711 mmHg 46%
    17:00 +7°C° 0 mm 3 mps 711 mmHg 51%
    18:00 +5°C° 0 mm 3 mps 711 mmHg 56%
    19:00 +5°C° 0 mm 2 mps 711 mmHg 60%
    20:00 +4°C° 0 mm 2 mps 712 mmHg 64%
    21:00 +4°C° 0 mm 1 mps 712 mmHg 68%
    22:00 +4°C° 0 mm 1 mps 712 mmHg 71%
    23:00 +3°C° 0 mm 1 mps 711 mmHg 74%

    Tomorrow, 22 January, Tuesday

    Time Temperature Precipitation Wind Pressure Humidity
    00:00 +3°C° 0 mm 1 mps 711 mmHg 76%
    01:00 +3°C° 0 mm 1 mps 711 mmHg 77%
    02:00 +2°C° 0 mm 1 mps 711 mmHg 78%
    03:00 +2°C° 0 mm 1 mps 710 mmHg 79%
    04:00 +2°C° 0 mm 1 mps 710 mmHg 77%
    05:00 +3°C° 0 mm 1 mps 710 mmHg 75%
    06:00 +2°C° 0 mm 2 mps 709 mmHg 73%
    07:00 +2°C° 0 mm 2 mps 709 mmHg 71%
    08:00 +3°C° 0 mm 2 mps 709 mmHg 68%
    09:00 +3°C° 0 mm 3 mps 709 mmHg 65%
    10:00 +4°C° 0 mm 4 mps 709 mmHg 60%
    11:00 +5°C° 0 mm 4 mps 708 mmHg 55%
    12:00 +7°C° 0 mm 5 mps 708 mmHg 50%
    13:00 +7°C° 0.2 mm 6 mps 707 mmHg 54%
    14:00 +7°C° 0.2 mm 6 mps 706 mmHg 58%
    15:00 +8°C° 0.2 mm 6 mps 705 mmHg 61%
    16:00 +7°C° 0.4 mm 6 mps 706 mmHg 63%
    17:00 +7°C° 0.4 mm 6 mps 706 mmHg 65%
    18:00 +5°C° 0.4 mm 6 mps 706 mmHg 67%
    19:00 +6°C° 0 mm 5 mps 706 mmHg 66%
    20:00 +5°C° 0 mm 4 mps 706 mmHg 66%
    21:00 +4°C° 0 mm 3 mps 706 mmHg 65%
    22:00 +3°C° 0 mm 4 mps 706 mmHg 70%
    23:00 +3°C° 0 mm 4 mps 706 mmHg 74%

    Day after tomorrow, 23 January, Wednesday

    Time Temperature Precipitation Wind Pressure Humidity
    00:00 +2°C° 0 mm 5 mps 706 mmHg 78%
    01:00 +1°C° 0 mm 5 mps 706 mmHg 78%
    02:00 +1°C° 0 mm 5 mps 706 mmHg 78%
    03:00 +1°C° 0 mm 5 mps 706 mmHg 78%
    04:00 +1°C° 0 mm 6 mps 706 mmHg 80%
    05:00 +1°C° 0 mm 6 mps 705 mmHg 81%
    06:00 0°C° 0 mm 7 mps 705 mmHg 82%
    07:00 0°C° 0 mm 8 mps 705 mmHg 80%
    08:00 +1°C° 0 mm 8 mps 704 mmHg 79%
    09:00 +2°C° 0 mm 9 mps 704 mmHg 77%
    10:00 +5°C° 0 mm 9 mps 704 mmHg 70%
    11:00 +7°C° 0 mm 10 mps 704 mmHg 62%
    12:00 +9°C° 0 mm 10 mps 704 mmHg 55%
    13:00 +11°C° 0 mm 10 mps 703 mmHg 54%
    14:00 +11°C° 0 mm 9 mps 703 mmHg 53%
    15:00 +11°C° 0 mm 9 mps 702 mmHg 52%
    16:00 +10°C° 0 mm 7 mps 702 mmHg 55%
    17:00 +9°C° 0 mm 6 mps 703 mmHg 59%
    18:00 +8°C° 0 mm 5 mps 703 mmHg 62%
    19:00 +7°C° 0 mm 5 mps 703 mmHg 66%
    20:00 +7°C° 0 mm 5 mps 703 mmHg 70%
    21:00 +6°C° 0 mm 5 mps 704 mmHg 74%
    22:00 +5°C° 0 mm 5 mps 704 mmHg 77%
    23:00 +5°C° 0 mm 5 mps 704 mmHg 79%

    24 January, Thursday

    Time Temperature Precipitation Wind Pressure Humidity
    00:00 +5°C° 0 mm 4 mps 704 mmHg 82%
    01:00 +4°C° 0 mm 4 mps 704 mmHg 84%
    02:00 +4°C° 0 mm 4 mps 704 mmHg 85%
    03:00 +4°C° 0 mm 3 mps 704 mmHg 87%
    04:00 +4°C° 0 mm 3 mps 704 mmHg 87%
    05:00 +5°C° 0 mm 3 mps 704 mmHg 86%
    06:00 +5°C° 0 mm 3 mps 704 mmHg 85%
    07:00 +5°C° 0 mm 3 mps 705 mmHg 81%
    08:00 +5°C° 0 mm 4 mps 705 mmHg 78%
    09:00 +6°C° 0 mm 4 mps 706 mmHg 74%
    10:00 +7°C° 0 mm 6 mps 706 mmHg 64%
    11:00 +8°C° 0 mm 7 mps 706 mmHg 54%
    12:00 +8°C° 0 mm 9 mps 707 mmHg 44%
    13:00 +9°C° 0 mm 8 mps 707 mmHg 43%
    14:00 +9°C° 0 mm 7 mps 707 mmHg 41%
    15:00 +9°C° 0 mm 6 mps 707 mmHg 39%
    16:00 +8°C° 0 mm 6 mps 707 mmHg 44%
    17:00 +7°C° 0 mm 5 mps 708 mmHg 48%
    18:00 +5°C° 0 mm 4 mps 708 mmHg 53%
    19:00 +5°C° 0 mm 4 mps 709 mmHg 56%
    20:00 +4°C° 0 mm 3 mps 709 mmHg 58%
    21:00 +5°C° 0 mm 2 mps 710 mmHg 61%
    22:00 +4°C° 0 mm 2 mps 710 mmHg 65%
    23:00 +4°C° 0 mm 1 mps 710 mmHg 68%

    25 January, Friday

    Time Temperature Precipitation Wind Pressure Humidity
    00:00 +3°C° 0 mm 0 mps 710 mmHg 71%
    01:00 +4°C° 0 mm 1 mps 710 mmHg 73%
    02:00 +4°C° 0 mm 1 mps 710 mmHg 74%
    03:00 +3°C° 0 mm 1 mps 710 mmHg 75%
    04:00 +3°C° 0 mm 1 mps 710 mmHg 77%
    05:00 +3°C° 0 mm 1 mps 710 mmHg 79%
    06:00 +3°C° 0 mm 1 mps 710 mmHg 81%
    07:00 +4°C° 0 mm 1 mps 711 mmHg 78%
    08:00 +5°C° 0 mm 1 mps 711 mmHg 75%
    09:00 +6°C° 0 mm 1 mps 711 mmHg 71%
    10:00 +8°C° 0 mm 3 mps 711 mmHg 63%
    11:00 +9°C° 0 mm 5 mps 711 mmHg 55%
    12:00 +11°C° 0 mm 6 mps 712 mmHg 47%
    13:00 +11°C° 0 mm 6 mps 711 mmHg 46%
    14:00 +13°C° 0 mm 6 mps 711 mmHg 45%
    15:00 +13°C° 0 mm 6 mps 710 mmHg 44%
    16:00 +10°C° 0 mm 5 mps 711 mmHg 51%
    17:00 +10°C° 0 mm 4 mps 711 mmHg 57%
    18:00 +8°C° 0 mm 2 mps 711 mmHg 64%
    19:00 +8°C° 0 mm 2 mps 711 mmHg 67%
    20:00 +7°C° 0 mm 2 mps 712 mmHg 71%
    21:00 +7°C° 0 mm 2 mps 712 mmHg 74%
    22:00 +6°C° 0 mm 2 mps 712 mmHg 77%
    23:00 +6°C° 0 mm 1 mps 712 mmHg 80%

    26 January, Saturday

    Time Temperature Precipitation Wind Pressure Humidity
    00:00 +6°C° 0 mm 1 mps 712 mmHg 82%
    01:00 +5°C° 0 mm 1 mps 712 mmHg 83%
    02:00 +5°C° 0 mm 1 mps 712 mmHg 84%
    03:00 +3°C° 0 mm 0 mps 712 mmHg 84%
    04:00 +3°C° 0 mm 0 mps 712 mmHg 85%
    05:00 +2°C° 0 mm 0 mps 711 mmHg 85%
    06:00 +2°C° 0 mm 0 mps 711 mmHg 86%
    07:00 +3°C° 0 mm 0 mps 711 mmHg 82%
    08:00 +4°C° 0 mm 0 mps 712 mmHg 78%
    09:00 +5°C° 0 mm 0 mps 712 mmHg 74%
    10:00 +8°C° 0 mm 1 mps 712 mmHg 68%
    11:00 +8°C° 0 mm 2 mps 711 mmHg 62%
    12:00 +10°C° 0 mm 3 mps 711 mmHg 56%
    13:00 +11°C° 0 mm 3 mps 710 mmHg 52%
    14:00 +12°C° 0 mm 4 mps 710 mmHg 48%
    15:00 +13°C° 0 mm 5 mps 709 mmHg 43%
    16:00 +12°C° 0 mm 5 mps 709 mmHg 48%
    17:00 +10°C° 0 mm 5 mps 709 mmHg 53%
    18:00 +10°C° 0 mm 4 mps 709 mmHg 57%
    19:00 +8°C° 0 mm 4 mps 709 mmHg 60%
    20:00 +7°C° 0 mm 4 mps 709 mmHg 63%
    21:00 +6°C° 0 mm 4 mps 709 mmHg 66%
    22:00 +7°C° 0 mm 3 mps 709 mmHg 67%
    23:00 +5°C° 0 mm 3 mps 709 mmHg 69%
    Show more